Regional Weather Roundup
Issued by NWS

Home | Current Version | Previous Version | Text Only | Print | Product List | Glossary On
Versions: 1 2 3 4 5 6 7 8 9 10 11 12 13 14 15 16 17 18 19 20 21 22 23 24 25 26 27 28 29 30 31 32 33 34 35 36 37 38 39 40 41 42 43 44 45 46 47 48 49 50
000
ASUS43 KMKX 201921
RWRWI

WISCONSIN REGIONAL WEATHER ROUNDUP
NATIONAL WEATHER SERVICE MILWAUKEE/SULLIVAN WI
100 PM CST SAT DEC 20 2014

NOTE: "FAIR" INDICATES FEW OR NO CLOUDS BELOW 12,000 FEET WITH NO
SIGNIFICANT WEATHER AND/OR OBSTRUCTIONS TO VISIBILITY.

WIZ001-002-006>008-014>016-023>028-202000-
NORTHWEST WISCONSIN

CITY           SKY/WX    TMP DP  RH WIND       PRES   REMARKS
SUPERIOR ARPT  CLOUDY    32  28  83 S5        30.12F WCI  27
ASHLAND        CLOUDY    31  27  85 S3        30.15F
HAYWARD        CLOUDY    29  23  78 S9        30.13F HAZE    WCI  20
SIREN          CLOUDY    31  27  83 S8        30.12F FOG     WCI  24
CUMBERLAND     CLOUDY    30  27  86 S9        30.12F HAZE    WCI  22
RICE LAKE      CLOUDY    31  26  81 SE9       30.15F WCI  23
CHETEK         CLOUDY    30  26  84 SE10      30.15F WCI  21
LADYSMITH      CLOUDY    30  26  84 SE5       30.17S WCI  25
EAU CLAIRE     CLOUDY    32  25  75 S7        30.16F WCI  26
MENOMONIE      CLOUDY    32  27  80 S7        30.16F HAZE    WCI  26
NEW RICHMOND   CLOUDY    31  29  91 S10       30.14S FOG     WCI  22
OSCEOLA        CLOUDY    32  29  87 S8        30.16F WCI  25
$$

WIZ003>005-009-010-017-018-202000-
NORTH CENTRAL WISCONSIN

CITY           SKY/WX    TMP DP  RH WIND       PRES   REMARKS
MANITOWISH WTR CLOUDY    26  25  96 S7        30.13F FOG     WCI  18
ARBOR VITAE    CLOUDY    28  25  89 S6        30.13F FOG     WCI  22
WOODRUFF       CLOUDY    28  25  89 S6        30.13F FOG     WCI  22
RHINELANDER    CLOUDY    26  24  92 SE5       30.15F FOG     WCI  20
EAGLE RIVER    CLOUDY    26  25  97 S3        30.14F FOG
LAND O LAKES   CLOUDY    27  25  95 S5        30.14F FOG     WCI  21
PHILLIPS       CLOUDY    28  24  88 S6        30.14S WCI  21
TOMAHAWK       CLOUDY    27  24  86 CALM      30.16F FOG
MEDFORD        CLOUDY    27  24  89 SE7       30.15F FOG     WCI  20
MERRILL        LGT SNOW  28  26  92 S3        30.17F
$$

WIZ029-030-035-036-043>047-202000-
CENTRAL WISCONSIN

CITY           SKY/WX    TMP DP  RH WIND       PRES   REMARKS
WAUSAU         CLOUDY    28  24  85 SE6       30.16F WCI  22
MOSINEE        CLOUDY    28  27  93 SE5       30.18F WCI  23
MARSHFIELD     CLOUDY    30  25  81 S7        30.17F HAZE    WCI  23
STEVENS POINT  CLOUDY    28  23  81 S6        30.19F WCI  22
WAUPACA        CLOUDY    32  24  74 SE5       30.22F WCI  27
WAUTOMA        CLOUDY    31  26  81 S3        30.22S
WISC RAPIDS    CLOUDY    30  23  75 S6        30.21F WCI  24
CAMP DOUGLAS   CLOUDY    30  30 100 SE7       30.20S WCI  23
$$

WIZ011>013-019>022-031-037>040-048>050-202000-
NORTHEAST WISCONSIN

CITY           SKY/WX    TMP DP  RH WIND       PRES   REMARKS
ANTIGO         CLOUDY    25  24  96 SE5       30.17F FOG     WCI  19
SHAWANO        CLOUDY    30  26  83 CALM      30.22F
OCONTO         CLOUDY    29  24  84 CALM      30.23F
STURGEON BAY   CLOUDY    28  21  74 CALM      30.24F
GREEN BAY      CLOUDY    30  23  75 CALM      30.23F
MANITOWOC      PTSUNNY   32  24  72 CALM      30.24F
APPLETON       CLOUDY    28  21  74 VRB3      30.23F
CLINTONVILLE   CLOUDY    30  23  74 CALM      30.22F
OSHKOSH        CLOUDY    28  23  81 CALM      30.23F HAZE
$$

WIZ032>034-041-042-053>061-202000-
SOUTHWEST WISCONSIN

CITY           SKY/WX    TMP DP  RH WIND       PRES   REMARKS
LA CROSSE      CLOUDY    33  26  75 S5        30.19F WCI  29
SPARTA         CLOUDY    31  26  80 SE6       30.20F WCI  25
VIROQUA        CLOUDY    29  29 100 SE8       30.17F WCI  21
BOSCOBEL       CLOUDY    32  26  78 CALM      30.22F HAZE
PRAIRIE DU CHI MIX PCPN  32  27  81 SE3       30.21F
PLATTEVILLE    CLOUDY    31  27  84 CALM      30.20F
$$

WIZ056-057-062-063-064-067-068-202000-
SOUTH CENTRAL WISCONSIN

CITY           SKY/WX    TMP DP  RH WIND       PRES   REMARKS
REEDSBURG      CLOUDY    29  25  85 SE3       30.20S
BARABOO/DELLS  CLOUDY    29  24  82 SE5       30.21S WCI  24
LONE ROCK      CLOUDY    34  26  72 SE5       30.22F HAZE    WCI  30
MINERAL POINT  CLOUDY    32  28  86 SE8       30.19F FOG     WCI  25
MADISON        FLURRIES  30  24  78 S6        30.21F WCI  24
MIDDLETON      CLOUDY    32  26  80 SE5       30.22S WCI  27
WATERTOWN      CLOUDY    29  25  86 CALM      30.23S
MONROE         CLOUDY    30  28  93 S8        30.21S FOG     WCI  23
JANESVILLE     CLOUDY    32  25  74 CALM      30.23F
$$

WIZ051-052-058>065-066-070>072-202000-
SOUTHEAST WISCONSIN

CITY           SKY/WX    TMP DP  RH WIND       PRES   REMARKS
MILWAUKEE      CLOUDY    31  20  63 W3        30.24F
WAUKESHA       FLURRIES  28  21  74 CALM      30.24F
MILWAUKEE/TIMM CLOUDY    30  19  64 W3        30.25F
RACINE         CLOUDY    31  22  69 SW7       30.26F WCI  24
BURLINGTON     CLOUDY    29  23  78 CALM      30.23F
KENOSHA        CLOUDY    31  24  75 W5        30.24F WCI  26
FOND DU LAC    LGT SNOW  29  23  78 S5        30.23F WCI  24
SHEBOYGAN      CLOUDY    31  22  69 CALM      30.23F
WEST BEND      CLOUDY    30  21  69 CALM      30.22F
JUNEAU         CLOUDY    29  24  82 S3        30.24S
$$

LSZ147-162-202000-
LAKE SUPERIOR

STATION/POSITION TIME  TEMP    WIND        PRES    WAVE
                       AIR SEA DIR/SP/G            HT/PER
                 (UTC) (F)     (DEG/KT/KT) (MB)    (FT/S)
DEVILS ISLAND    1900   31     200/  8/ 11 1021.4F
PORT WING        1800   32     170/  9/ 13 1020.7F
SAXON HARBOR     1700   31     180/  5/  8 1021.7F
$$

LMZ867-665-643>646-202000-
LAKE MICHIGAN

STATION/POSITION TIME  TEMP    WIND        PRES    WAVE
                       AIR SEA DIR/SP/G            HT/PER
                 (UTC) (F)     (DEG/KT/KT) (MB)    (FT/S)
CHAMBERS ISLAND  1800   28     230/  2/  4 1024.4F
NORTHPORT PIER   1830   29     320/  6/  8 1023.7F
ALGOMA LAKESHORE 1829          330/  6/  7   N/A
KEWAUNEE LAKESHO 1900   31     280/  2/  4 1023.0F
SHEBOYGAN LAKESH 1900   31 33   10/  6/  7 1024.7F
PORT WASHINGTON  1840   32     320/  3/  5 1024.7F
MILWAUKEE LAKESH 1900   31     230/  3/  4   N/A
KENOSHA   LAKESH 1900   31     250/  5/  7 1024.4S
$$

TC  - TEMPERATURE IN CELSIUS
VSB - VISIBILITY IN STATUTE MILES
WCI - WIND CHILL INDEX
HX  - HEAT INDEX




USA.gov is the U.S. government's official web portal to all federal, state and local government web resources and services.